Weather Roundup
Issued by NWS

Home | Current Version | Previous Version | Graphics & Text | Print | Product List | Glossary Off
Versions: 1 2 3 4 5 6 7 8 9 10 11 12 13 14 15 16 17 18 19 20 21 22 23 24 25 26 27 28 29 30 31 32 33 34 35 36 37 38 39 40 41 42 43 44 45 46 47 48 49 50

062
NZUS93 KARX 280159
HRRWXR

CURRENT HOURLY OBSERVATIONS ACROSS
MUCH OF THE UPPER MISSISSIPPI VALLEY
NATIONAL WEATHER SERVICE LA CROSSE WI
900 PM CDT MON MAR 27 2017


...SOUTHEAST MINNESOTA...


CITY           SKY/WX    TMP DP  RH WIND       PRES   REMARKS
ROCHESTER      MOCLDY    42  39  89 E3        29.98R
ROCHESTER/MAYO FAIR      44  40  86 CALM      29.99R
WINONA         MOCLDY    41  36  81 CALM      29.99S
AUSTIN         CLOUDY    45  39  81 CALM      29.98R
ALBERT LEA     CLEAR     43  37  81 CALM      29.98S
DODGE CENTER   CLEAR     43  37  81 CALM      29.98S
PRESTON        CLOUDY    42  38  86 NE3       29.99R
OWATONNA       PTCLDY    43  36  75 CALM      29.99R
FARIBAULT      CLOUDY    43  39  87 CALM      29.99S
$$

...ELSEWHERE IN MINNESOTA...


CITY           SKY/WX    TMP DP  RH WIND       PRES   REMARKS
MINNEAPOLIS    CLEAR     47  36  65 SE5       29.99R
INTNL FALLS    CLOUDY    37  25  61 CALM      30.00R
DULUTH         CLEAR     39  31  72 SE5       30.00R
RED WING       CLEAR     39  36  87 CALM      29.98R
REDWOOD FALLS  CLEAR     52  32  46 SE5       29.98R
MANKATO        CLEAR     45  39  79 SE5       29.99R
WORTHINGTON    CLEAR     46  38  73 S6        29.99R
FAIRMONT       CLEAR     43  38  82 S3        29.99R
$$

...SOUTHWEST WISCONSIN...


CITY           SKY/WX    TMP DP  RH WIND       PRES   REMARKS
LA CROSSE      CLOUDY    46  39  76 N5        29.98R
PRAIRIE DU CHI CLOUDY    46  44  93 CALM      29.97R
BOSCOBEL       CLOUDY    48  45  89 CALM      29.98R
LONE ROCK      CLOUDY    46  46 100 CALM      29.98R FOG
PLATTEVILLE    CLOUDY    47  47 100 N3        29.97R
FORT MC COY    CLOUDY    43  39  84 N5        29.99R
MAUSTON-NEW LI CLOUDY    44  41  90 N3        29.98R
VIROQUA        CLOUDY    43  43  99 CALM      29.97R
WIS DELLS      CLOUDY    45  42  92 N3        29.97R
$$

...ELSEWHERE IN WISCONSIN...


CITY           SKY/WX    TMP DP  RH WIND       PRES   REMARKS
MILWAUKEE      CLOUDY    39  36  89 N8        29.98R WCI  33
MADISON        LGT RAIN  46  44  93 NE5       29.96R
GREEN BAY      CLOUDY    40  38  93 N3        30.00R
EAU CLAIRE     NOT AVBL
BLACK RVR FLS  CLOUDY    43  37  78 CALM      29.98S
MEDFORD        CLEAR     34  33  96 CALM      29.97S
WAUSAU         MOCLDY    40  37  89 CALM      29.97R
WIS RAPIDS     CLOUDY    41  40  96 CALM      30.00R
MARSHFIELD     CLOUDY    41  36  82 CALM      29.97R
RICE LAKE      CLEAR     42  35  78 CALM      30.00R
$$

...NORTHEAST IOWA...


CITY           SKY/WX    TMP DP  RH WIND       PRES   REMARKS
WATERLOO       CLOUDY    47  41  80 N7        29.97R
DUBUQUE        CLOUDY    47  44  90 N6        29.97R
DECORAH        CLOUDY    45  43  93 VRB3      29.97R
MASON CITY     PTCLDY    41  37  86 CALM      30.00R
CHARLES CITY   CLOUDY    46  46 100 N5        29.99R
OELWEIN        CLOUDY    46  45  93 NE5       29.98R
$$

...ELSEWHERE IN IOWA...


CITY           SKY/WX    TMP DP  RH WIND       PRES   REMARKS
DES MOINES     CLOUDY    49  40  71 N8        29.99R
IOWA CITY      CLOUDY    52  45  77 N6        29.98R
FORT DODGE     CLOUDY    46  39  76 CALM      30.00R
MARSHALLTOWN   CLOUDY    46  42  86 N3        29.97R
CEDAR RAPIDS   CLOUDY    48  46  93 N5        29.96R
$$

...NORTHERN ILLINOIS...


CITY           SKY/WX    TMP DP  RH WIND       PRES   REMARKS
CHICAGO-OHARE  CLOUDY    43  37  79 NE10      29.95R
CHICAGO-MIDWAY CLOUDY    43  39  86 NE8       29.96R
MOLINE         CLOUDY    51  45  79 N3        29.94S
ROCKFORD       CLOUDY    50  44  80 NE7       29.97R
PEORIA         CLOUDY    52  49  89 N6        29.93R
$$

NOTE: "FAIR" INDICATES FEW OR NO CLOUDS BELOW 12,000 FEET WITH NO
SIGNIFICANT WEATHER AND/OR OBSTRUCTIONS TO VISIBILITY. WIND
SPEEDS ARE IN MILES-PER-HOUR.




USA.gov is the U.S. government's official web portal to all federal, state and local government web resources and services.